Location: Unspecified
(0.0000°N, 0.0000°E)
Time: 18:58:41
(UTC+00:00)

Vanguard 2 Rocket - Pass Details

Date: 19 January 2020
Orbit: 554 x 3327 km, 32.9° (Epoch: 20 February)

Event Time Altitude Azimuth Distance (km) Brightness Sun altitude
Rises 02:20:15 0° 233° (SW) 3,154 - -52.2°
Reaches altitude 10° 02:22:54 10° 231° (SW) 2,029 - -51.7°
Maximum altitude 02:27:13 75° 146° (SE) 577 - -50.8°
Drops below altitude 10° 02:31:09 10° 60° (ENE) 1,842 - -50.0°
Sets 02:33:26 0° 58° (ENE) 2,829 - -49.5°
